Wind_Speed
17 16 16 16 16 16 17 18 18 19 19 20 21 22 23 24 25 26 27 28 30 32 33 36 42 46 46 47 52 55 50 47 50 53 50 45 46 50 51 55 56 51
16 15 15 15 14 14 14 15 16 16 16 17 19 20 21 22 23 24 25 25 27 29 30 32 37 43 46 46 48 50 47 48 50 48 46 48 49 50 53 57 55 48
16 15 15 14 13 12 13 14 15 15 15 16 17 18 19 21 23 24 24 25 25 26 29 30 32 37 44 47 47 48 49 50 50 48 48 50 50 51 54 54 48 43
17 16 15 15 14 13 14 14 14 15 15 16 16 17 19 21 22 24 25 25 25 26 27 29 31 32 38 44 46 48 49 48 46 45 47 50 52 54 54 49 44 41
19 18 17 17 16 16 17 16 15 16 16 17 17 18 20 21 22 24 25 26 26 27 27 28 30 31 35 40 44 46 47 47 46 44 46 49 51 54 52 45 41 40
20 20 19 19 20 20 19 18 18 18 19 19 19 19 20 22 23 23 24 26 27 28 28 29 29 30 32 37 42 45 46 47 46 45 46 48 50 51 48 43 41 39
22 21 21 22 22 22 21 20 20 21 22 22 22 21 22 23 24 24 25 26 28 28 28 29 30 31 31 34 39 42 44 44 43 42 44 46 47 45 43 43 42 38
24 24 24 24 25 24 24 23 23 23 24 25 25 24 24 24 25 26 26 27 28 29 29 29 31 31 31 32 36 39 40 41 41 41 43 45 44 42 41 42 41 37
27 26 27 27 26 26 26 25 25 25 26 27 27 27 27 27 27 28 28 29 29 29 30 30 30 31 31 31 35 38 39 39 40 41 43 44 43 42 42 40 38 38
31 30 30 30 29 29 28 27 27 27 27 28 28 29 29 29 30 30 30 31 31 31 30 30 30 30 30 31 34 37 39 39 40 41 42 42 42 42 41 40 40 40
34 32 33 33 33 32 31 29 29 29 29 29 29 30 31 31 31 32 32 32 33 32 31 31 30 29 31 32 33 35 37 38 38 38 38 38 38 38 38 38 39 39
38 37 36 36 36 36 34 33 32 32 32 31 31 32 32 32 32 33 33 33 34 33 32 31 30 30 31 31 32 33 34 36 37 36 35 35 35 35 35 35 35 36
35 37 38 38 39 40 39 38 36 35 35 34 34 34 33 33 34 34 34 34 34 34 34 32 31 30 30 31 32 33 34 35 36 37 37 36 34 33 33 33 33 34
31 32 34 36 38 40 42 43 41 39 37 36 36 36 35 35 35 34 34 34 35 35 35 33 32 31 31 31 32 34 35 35 36 37 37 36 35 34 34 34 32 33
32 32 33 33 35 36 39 43 45 42 40 39 38 37 36 36 36 35 35 35 36 36 36 35 34 33 32 32 33 34 35 36 36 36 36 36 36 35 34 34 34 34
34 35 35 35 36 35 35 38 43 44 42 41 40 38 37 38 37 36 36 36 36 36 36 36 36 34 32 31 32 32 33 35 35 35 35 35 36 36 35 35 36 35
37 37 38 38 37 36 36 36 40 43 44 43 41 40 39 39 38 37 37 36 36 36 36 37 36 35 32 30 30 31 32 33 34 34 35 36 37 38 37 36 35 34
37 37 38 39 38 37 37 37 38 42 44 44 42 40 39 39 38 37 37 36 36 37 36 37 36 34 32 30 29 30 32 34 35 35 35 36 36 36 35 33 32 31
35 35 36 37 37 36 37 37 38 40 42 43 42 40 39 39 38 37 37 36 37 37 37 36 35 33 31 29 29 30 32 34 35 35 34 34 33 33 32 30 30 31
34 34 35 35 35 35 36 37 38 38 38 39 40 40 40 39 38 37 36 36 37 36 36 36 34 32 29 26 26 29 31 33 34 34 33 32 31 30 29 29 29 29
34 34 34 34 34 35 35 36 37 37 36 37 38 39 39 38 36 36 36 36 36 35 35 35 33 30 27 24 24 28 31 32 33 33 31 29 28 27 27 28 28 27
35 35 35 34 34 35 36 36 36 37 36 36 37 38 38 37 36 36 35 36 35 34 35 34 32 29 27 26 26 29 32 32 32 31 29 28 28 28 28 29 28 28
37 37 37 36 35 36 37 37 37 37 36 36 37 37 37 36 35 34 34 34 33 33 33 32 29 26 26 27 29 30 31 31 31 30 32 32 31 29 29 29 29 28
37 38 38 38 37 36 36 37 37 37 36 35 36 35 35 34 32 32 32 31 30 30 29 27 25 22 23 27 29 30 30 30 31 32 33 32 30 28 28 28 28 26
36 37 38 38 38 36 36 36 36 36 35 34 34 34 33 32 31 30 30 29 28 27 26 24 22 20 22 26 28 29 30 30 30 30 29 28 27 27 27 27 27 25
35 36 37 37 37 36 35 36 36 37 36 35 34 33 32 31 30 30 29 28 26 25 24 23 22 22 23 25 27 28 28 28 27 27 27 26 26 26 27 26 25 23
Wind_Direction
248 248 250 253 256 259 262 264 266 268 271 271 274 276 276 277 275 273 270 268 266 264 261 254 243 240 243 247 248 245 246 252 253 250 250 253 257 258 257 257 255 248
241 242 244 247 252 257 259 263 266 269 272 273 276 278 279 279 276 274 272 268 265 262 260 257 249 240 237 242 246 243 248 256 252 248 253 256 255 257 259 259 254 247
236 236 240 243 249 257 261 264 268 272 275 276 278 280 280 280 279 276 273 270 267 263 260 258 255 245 237 236 240 243 249 253 247 247 255 256 253 256 261 260 252 247
235 236 241 246 249 254 258 262 267 272 275 277 278 280 279 278 279 279 276 274 271 267 264 260 258 252 243 239 241 246 249 250 250 251 255 255 253 257 260 257 248 248
236 238 242 246 247 250 253 257 263 268 270 272 274 275 276 277 277 279 279 278 275 272 269 265 260 255 247 241 242 245 248 249 250 251 254 255 256 258 258 250 246 251
235 237 240 244 246 248 250 254 259 264 267 270 272 272 274 276 277 278 279 279 278 275 272 269 266 260 250 241 239 242 246 249 249 250 252 256 258 259 254 246 247 251
238 238 240 243 246 248 250 253 257 262 267 270 271 272 274 277 278 279 278 279 278 276 273 269 268 265 256 244 239 241 245 248 250 251 253 257 257 255 251 249 250 252
245 244 244 245 247 249 250 252 255 261 266 269 271 274 275 276 278 279 278 278 277 276 274 269 267 266 259 246 239 240 243 247 249 250 254 256 253 251 252 252 251 253
252 251 251 251 251 252 253 254 256 260 263 267 270 272 274 275 276 277 278 278 277 276 274 270 265 263 258 249 240 238 240 244 246 247 252 255 253 253 256 254 252 256
256 254 255 256 256 256 258 258 259 261 263 266 269 270 272 274 275 275 276 277 277 276 275 273 268 262 257 251 243 238 239 241 243 245 249 253 254 256 257 254 254 256
262 260 258 259 261 261 261 262 262 263 264 265 267 270 272 273 274 275 275 276 277 277 275 275 271 264 258 252 243 237 238 241 244 246 248 250 252 254 255 254 255 255
270 269 266 264 266 267 267 267 265 265 266 267 268 269 271 272 274 275 275 276 277 277 275 274 272 266 259 251 241 236 238 240 243 246 249 251 251 251 252 254 255 254
281 278 277 276 275 274 273 272 270 268 268 268 269 269 271 272 273 274 276 277 277 277 275 273 272 267 259 249 239 237 239 241 243 247 250 251 252 252 253 254 254 254
294 291 288 287 285 282 279 276 273 271 269 269 270 271 272 274 274 274 275 275 276 276 275 273 270 266 259 248 241 239 241 243 245 247 249 251 254 256 257 256 255 255
296 294 292 290 289 287 283 279 275 272 270 270 270 271 273 274 274 273 273 274 275 275 274 272 270 267 261 250 243 241 243 245 247 248 250 253 255 256 255 254 255 257
296 292 290 289 288 288 287 283 278 274 271 270 270 271 273 274 274 273 273 274 274 274 273 272 269 267 264 254 245 242 244 247 249 250 251 252 251 252 252 251 253 255
298 294 292 290 288 287 287 285 280 276 272 270 270 271 273 274 274 273 274 274 275 274 273 271 269 267 265 258 248 243 244 247 249 250 250 250 249 248 247 248 250 251
295 293 290 288 288 287 286 286 282 277 273 271 270 272 274 275 275 275 274 275 275 274 272 271 268 265 263 259 248 241 244 247 247 249 251 251 248 245 244 246 247 248
293 291 288 286 287 288 287 285 282 279 276 272 270 271 274 275 275 274 274 274 274 274 273 271 267 264 262 258 247 240 243 245 245 248 252 250 246 243 244 244 244 244
296 294 291 289 288 289 287 286 284 281 278 273 269 270 273 275 274 273 273 274 274 274 272 268 265 262 259 255 245 238 240 244 245 247 247 245 243 243 243 242 241 242
300 296 294 291 290 290 287 286 285 283 279 274 271 271 273 274 273 272 272 273 272 271 268 265 262 259 254 247 240 238 240 244 244 241 239 238 241 243 242 242 241 241
303 299 296 292 290 289 286 285 285 284 282 278 275 274 274 272 271 271 272 273 271 267 263 261 259 256 248 239 235 239 242 242 238 235 237 241 243 242 240 240 240 240
302 301 299 294 289 286 285 285 285 285 283 280 277 275 274 273 273 273 273 271 267 263 260 259 257 254 245 235 235 240 242 240 237 238 242 244 242 239 237 237 238 239
298 300 300 297 291 286 283 284 284 283 282 279 277 275 274 273 273 271 268 265 261 259 258 256 255 254 244 235 236 242 243 242 241 241 241 238 234 233 235 238 239 238
293 296 298 297 293 288 283 282 281 281 279 277 275 273 272 271 269 265 261 258 256 255 254 250 246 245 241 237 238 241 242 241 240 238 236 233 230 230 233 236 237 233
290 292 294 294 291 288 284 281 279 278 277 275 274 272 270 267 264 260 258 255 252 249 247 243 240 239 239 238 237 237 238 236 235 235 235 234 234 234 234 233 230 223
Height
1512 1512 1512 1512 1512 1513 1513 1513 1513 1513 1513 1512 1512 1512 1512 1512 1512 1513 1513 1513 1513 1513 1513 1514 1515 1516 1518 1519 1519 1518 1519 1520 1521 1521 1521 1521 1522 1522 1522 1522 1522 1523
1510 1510 1510 1510 1510 1510 1510 1511 1511 1510 1510 1510 1509 1509 1509 1508 1508 1508 1508 1508 1508 1508 1508 1508 1508 1510 1512 1513 1514 1514 1515 1515 1515 1516 1518 1517 1517 1518 1517 1517 1517 1520
1508 1508 1508 1508 1508 1508 1508 1508 1508 1507 1507 1507 1506 1506 1506 1505 1505 1504 1504 1504 1504 1504 1504 1504 1504 1504 1506 1508 1509 1510 1510 1511 1511 1513 1513 1513 1513 1513 1512 1513 1515 1517
1506 1506 1506 1506 1505 1505 1505 1505 1504 1504 1504 1503 1503 1503 1503 1502 1502 1501 1500 1500 1499 1499 1500 1499 1500 1500 1501 1503 1505 1505 1506 1507 1508 1509 1509 1508 1508 1508 1508 1510 1511 1513
1503 1504 1504 1504 1503 1502 1502 1502 1502 1501 1501 1500 1500 1500 1499 1499 1499 1498 1497 1496 1495 1495 1495 1495 1496 1496 1497 1499 1500 1501 1501 1502 1503 1505 1504 1504 1504 1503 1504 1506 1507 1508
1500 1500 1501 1500 1500 1499 1498 1498 1499 1498 1498 1497 1497 1496 1496 1495 1495 1495 1494 1493 1492 1491 1491 1490 1491 1492 1493 1494 1496 1497 1497 1498 1499 1500 1500 1499 1500 1500 1500 1502 1503 1503
1498 1498 1497 1497 1497 1496 1495 1495 1495 1495 1494 1494 1493 1493 1492 1492 1491 1491 1490 1490 1489 1488 1487 1486 1486 1487 1487 1489 1490 1491 1492 1493 1494 1496 1495 1495 1496 1496 1497 1498 1499 1499
1496 1496 1495 1494 1493 1492 1491 1491 1491 1491 1491 1490 1490 1489 1489 1488 1488 1487 1487 1486 1485 1484 1483 1483 1482 1482 1482 1483 1485 1486 1487 1488 1490 1491 1491 1492 1492 1493 1494 1494 1495 1495
1494 1494 1492 1491 1490 1489 1489 1488 1488 1487 1487 1486 1486 1486 1486 1485 1484 1483 1483 1482 1481 1481 1480 1479 1478 1478 1478 1478 1479 1481 1482 1483 1485 1486 1487 1487 1488 1489 1490 1491 1491 1491
1491 1490 1489 1488 1487 1486 1485 1485 1485 1484 1483 1483 1482 1482 1482 1482 1481 1480 1479 1478 1477 1477 1476 1476 1475 1474 1474 1474 1475 1476 1478 1479 1481 1482 1482 1483 1484 1485 1485 1486 1487 1487
1488 1487 1486 1484 1484 1483 1482 1482 1481 1481 1480 1479 1479 1478 1478 1478 1477 1476 1475 1474 1473 1473 1473 1472 1471 1470 1470 1470 1471 1472 1474 1475 1476 1477 1478 1479 1480 1480 1481 1482 1482 1483
1484 1484 1482 1481 1481 1480 1479 1479 1478 1477 1476 1476 1475 1474 1474 1474 1473 1472 1471 1470 1470 1469 1469 1468 1468 1467 1466 1466 1468 1469 1470 1471 1472 1473 1473 1474 1475 1476 1477 1477 1478 1478
1480 1480 1479 1478 1478 1477 1476 1475 1474 1473 1473 1472 1471 1470 1469 1469 1468 1468 1467 1467 1466 1465 1464 1464 1464 1463 1463 1463 1464 1465 1466 1467 1468 1469 1469 1470 1471 1472 1472 1473 1473 1474
1475 1475 1474 1474 1474 1473 1472 1471 1470 1470 1469 1468 1467 1466 1465 1464 1464 1463 1463 1463 1462 1461 1460 1460 1460 1459 1459 1459 1460 1462 1462 1463 1464 1465 1465 1466 1467 1467 1468 1468 1469 1469
1471 1470 1470 1469 1468 1467 1467 1466 1465 1465 1464 1463 1463 1462 1461 1459 1459 1458 1458 1458 1457 1456 1456 1455 1455 1455 1455 1455 1457 1458 1459 1460 1461 1461 1462 1462 1463 1464 1464 1465 1465 1466
1465 1465 1464 1463 1462 1462 1461 1461 1460 1459 1459 1458 1458 1457 1456 1455 1454 1454 1453 1453 1453 1452 1452 1451 1451 1451 1451 1452 1453 1455 1456 1457 1457 1458 1458 1459 1459 1460 1460 1461 1461 1462
1460 1459 1458 1457 1456 1456 1456 1455 1454 1453 1453 1453 1453 1452 1452 1450 1449 1449 1449 1448 1448 1447 1447 1446 1446 1447 1448 1448 1449 1451 1453 1453 1454 1454 1455 1455 1455 1455 1456 1456 1457 1457
1456 1454 1453 1452 1451 1451 1450 1449 1448 1447 1447 1447 1447 1448 1447 1446 1445 1445 1444 1444 1444 1443 1442 1442 1442 1443 1443 1444 1445 1447 1448 1449 1450 1450 1451 1451 1451 1451 1452 1452 1453 1453
1453 1451 1449 1447 1447 1446 1445 1443 1442 1441 1441 1442 1442 1442 1442 1441 1440 1440 1439 1439 1439 1438 1438 1437 1438 1439 1439 1439 1440 1442 1444 1445 1446 1446 1447 1447 1447 1447 1448 1448 1449 1449
1449 1446 1444 1443 1442 1441 1439 1438 1437 1436 1436 1436 1436 1436 1435 1435 1435 1435 1434 1434 1434 1434 1433 1433 1433 1434 1435 1436 1437 1438 1440 1441 1442 1442 1443 1443 1443 1444 1444 1445 1445 1446
1445 1442 1440 1438 1437 1436 1434 1433 1432 1431 1431 1431 1431 1430 1430 1429 1429 1429 1429 1429 1429 1429 1428 1428 1429 1430 1431 1432 1433 1435 1436 1437 1437 1438 1438 1439 1440 1441 1441 1442 1443 1443
1441 1438 1436 1434 1432 1431 1429 1428 1428 1427 1427 1427 1426 1425 1424 1424 1424 1424 1424 1424 1424 1424 1423 1423 1424 1425 1426 1428 1429 1431 1432 1433 1433 1434 1435 1436 1436 1437 1438 1439 1440 1440
1436 1434 1433 1431 1429 1427 1425 1424 1424 1423 1423 1422 1421 1420 1420 1419 1419 1419 1420 1420 1420 1420 1419 1419 1420 1422 1422 1424 1426 1427 1428 1429 1430 1431 1432 1432 1433 1434 1435 1435 1436 1437
1432 1430 1428 1426 1425 1423 1421 1421 1420 1419 1418 1418 1417 1416 1415 1415 1416 1415 1415 1416 1416 1415 1416 1416 1417 1418 1419 1420 1422 1423 1424 1425 1426 1427 1428 1428 1429 1430 1431 1432 1433 1434
1428 1426 1424 1422 1420 1418 1417 1416 1415 1414 1414 1413 1413 1412 1412 1412 1412 1411 1411 1412 1412 1412 1412 1413 1414 1415 1416 1417 1418 1420 1420 1422 1423 1423 1424 1425 1426 1427 1428 1429 1430 1431
1424 1422 1420 1418 1416 1414 1413 1412 1411 1410 1409 1409 1409 1408 1408 1408 1408 1408 1408 1408 1408 1409 1409 1410 1411 1412 1413 1414 1415 1416 1417 1418 1419 1420 1421 1423 1424 1424 1425 1426 1427 1429